Location: Recife
(8.0585°S, 34.8848°W)
Time: 11:33:34
(UTC-03:00)

Vanguard 2 Rocket - Pass Details

Date: 18 April 2026
Orbit: 553 x 3286 km, 32.9° (Epoch: 7 May)

Event Time Altitude Azimuth Distance (km) Brightness Sun altitude
Rises 15:13:46 0° 248° (WSW) 7,201 12.2 28.5°
Reaches altitude 10° 15:18:56 10° 254° (WSW) 6,234 12.2 27.3°
Maximum altitude 15:37:14 45° 319° (NW) 3,612 11.0 23.0°
Drops below altitude 10° 15:50:48 10° 28° (NNE) 4,680 10.5 19.7°
Sets 15:54:07 0° 35° (NE) 5,345 10.6 18.9°
